Location: Banff
(51.1667°N, 115.5667°W)
Time: 09:34:16
(UTC+00:00)

Envisat - Pass Details

Date: 26 November 2022
Orbit: 763 x 765 km, 98.2° (Epoch: 28 January)

Event Time Altitude Azimuth Distance (km) Brightness Sun altitude
Rises 10:22:20 0° 30° (NNE) 3,246 6.8 -44.9°
Reaches altitude 10° 10:26:17 10° 61° (ENE) 2,312 6.1 -44.3°
Enters shadow 10:27:11 11° 71° (ENE) 2,208 5.9 -44.2°
